Voltar ao catálogo

OT-FOREST-17 TELPERION

AtivoCiênciaSSO
NORAD 68988·PAYLOAD·🇮🇹 Italy

Lançado May 3, 2026 de Vandenberg Space Force Base

Loading…

Próximas Passagens (próximas 24 horas)

TLE

AtualizadoSource: Space-Track

Época: Sep 14, 2026, 23:27 UTC

1 68988U 26100J   26257.97761510  .00001076  00000-0  10917-3 0  9991
2 68988  97.7214 153.6200 0004990 187.8004 172.3139 14.92908863 20084

Acompanhe OT-FOREST-17 TELPERION em tempo real com AllMySat

Download on the App Store